Dades meteomassalio
Diari Summary for Juliol 11, 2017 Units:  Metric    English   Both
« Previous Day
Next Day »
Diari Semanal Mensual Anual Personalitzat
  Maxima: Minima: Mijana:
Temperatura: -17.8 °C -8.5 °C -3.6 °C
Rosada: -17.8 °C -10.2 °C -8.9 °C
Humitat: Humidity % 30 % 59 %
Velocitat del vent: 0 km/h 0 km/h 6.1 km/h
Racha vent: 0 km/h - -
Vent:- - ESE
Pressio: 0 hPa 34279.9 hPa -
Pluja: 0 mm    
Historical Graphs
 
 
Tabular Data for Juliol 11, 2017
Time Temperature Dew Point Pressure Wind Wind Speed Wind Gust Humidity Rainfall Rate (Hourly) solar Conditions
-17.8 °C -17.8 °C 0 hPa Calm     Humidity % 0 mm SolarRadiationWatts/m^2 W/m2 Conditions
00:03 -4.7 °C -8.4 °C 34327.3 hPa Calm     66 % 0 mm 0.0 W/m2 CLR
00:08 -4.8 °C -8.5 °C 34327.3 hPa WNW 17.9 km/h 17.9 km/h 66 % 0 mm 0.0 W/m2 CLR
00:13 -4.8 °C -8.5 °C 34327.3 hPa West 9 km/h 9 km/h 66 % 0 mm 0.0 W/m2 CLR
00:18 -4.8 °C -8.6 °C 34337.4 hPa Calm     66 % 0 mm 0.0 W/m2 CLR
00:23 -4.9 °C -8.6 °C 34327.3 hPa Calm     66 % 0 mm 0.0 W/m2 CLR
00:28 -4.9 °C -8.7 °C 34337.4 hPa Calm     66 % 0 mm 0.0 W/m2 CLR
00:33 -5.1 °C -8.6 °C 34337.4 hPa Calm     67 % 0 mm 0.0 W/m2 CLR
00:38 -5.1 °C -8.7 °C 34337.4 hPa Calm     67 % 0 mm 0.0 W/m2 CLR
00:43 -5.2 °C -8.7 °C 34337.4 hPa Calm     68 % 0 mm 0.0 W/m2 CLR
00:48 -5.3 °C -8.7 °C 34337.4 hPa Calm     68 % 0 mm 0.0 W/m2 CLR
00:53 -5.3 °C -8.8 °C 34337.4 hPa Calm     68 % 0 mm 0.0 W/m2 CLR
00:58 -5.4 °C -8.8 °C 34337.4 hPa Calm     68 % 0 mm 0.0 W/m2 CLR
01:03 -5.4 °C -8.8 °C 34337.4 hPa Calm     68 % 0 mm 0.0 W/m2 CLR
01:08 -5.5 °C -8.9 °C 34337.4 hPa Calm     68 % 0 mm 0.0 W/m2 CLR
01:13 -5.5 °C -9.1 °C 34347.6 hPa Calm     67 % 0 mm 0.0 W/m2 CLR
01:18 -5.6 °C -9.1 °C 34337.4 hPa Calm     67 % 0 mm 0.0 W/m2 CLR
01:23 -5.6 °C -9.2 °C 34337.4 hPa Calm     67 % 0 mm 0.0 W/m2 CLR
01:28 -5.7 °C -9.2 °C 34337.4 hPa Calm     67 % 0 mm 0.0 W/m2 CLR
01:33 -5.7 °C -9.3 °C 34337.4 hPa Calm     67 % 0 mm 0.0 W/m2 CLR
01:38 -5.8 °C -9.3 °C 34337.4 hPa Calm     67 % 0 mm 0.0 W/m2 CLR
01:43 -5.8 °C -9.3 °C 34347.6 hPa Calm     67 % 0 mm 0.0 W/m2 CLR
01:48 -5.8 °C -9.3 °C 34347.6 hPa Calm     68 % 0 mm 0.0 W/m2 CLR
01:53 -5.9 °C -9.2 °C 34347.6 hPa Calm     69 % 0 mm 0.0 W/m2 CLR
01:58 -6 °C -9.3 °C 34347.6 hPa Calm     69 % 0 mm 0.0 W/m2 CLR
02:03 -6.1 °C -9.2 °C 34347.6 hPa Calm     70 % 0 mm 0.0 W/m2 CLR
02:08 -6.1 °C -9.1 °C 34347.6 hPa Calm     71 % 0 mm 0.0 W/m2 CLR
02:13 -6.2 °C -9.1 °C 34347.6 hPa Calm     72 % 0 mm 0.0 W/m2 CLR
02:18 -6.3 °C -9.1 °C 34347.6 hPa Calm     73 % 0 mm 0.0 W/m2 CLR
02:23 -6.4 °C -9.2 °C 34347.6 hPa Calm     73 % 0 mm 0.0 W/m2 CLR
02:28 -6.4 °C -9.1 °C 34347.6 hPa Calm     74 % 0 mm 0.0 W/m2 CLR
02:33 -6.5 °C -9.1 °C 34347.6 hPa Calm     74 % 0 mm 0.0 W/m2 CLR
02:38 -6.5 °C -9.1 °C 34347.6 hPa Calm     74 % 0 mm 0.0 W/m2 CLR
02:43 -6.5 °C -9.1 °C 34347.6 hPa Calm     74 % 0 mm 0.0 W/m2 CLR
02:48 -6.5 °C -9.2 °C 34347.6 hPa Calm     74 % 0 mm 0.0 W/m2 CLR
02:53 -6.6 °C -9.2 °C 34347.6 hPa Calm     74 % 0 mm 0.0 W/m2 CLR
02:58 -6.6 °C -9.2 °C 34347.6 hPa Calm     74 % 0 mm 0.0 W/m2 CLR
03:03 -6.6 °C -9.2 °C 34347.6 hPa Calm     74 % 0 mm 0.0 W/m2 CLR
03:08 -6.6 °C -9.3 °C 34347.6 hPa Calm     74 % 0 mm 0.0 W/m2 CLR
03:13 -6.7 °C -9.3 °C 34347.6 hPa Calm     74 % 0 mm 0.0 W/m2 CLR
03:18 -6.7 °C -9.3 °C 34347.6 hPa Calm     75 % 0 mm 0.0 W/m2 CLR
03:23 -6.8 °C -9.3 °C 34347.6 hPa Calm     75 % 0 mm 0.0 W/m2 CLR
03:28 -6.8 °C -9.3 °C 34347.6 hPa Calm     75 % 0 mm 0.0 W/m2 CLR
03:33 -6.8 °C -9.4 °C 34347.6 hPa Calm     75 % 0 mm 0.0 W/m2 CLR
03:38 -6.9 °C -9.3 °C 34347.6 hPa Calm     76 % 0 mm 0.0 W/m2 CLR
03:44 -6.9 °C -9.2 °C 34347.6 hPa Calm     77 % 0 mm 0.0 W/m2 CLR
03:49 -6.9 °C -9.3 °C 34347.6 hPa Calm     77 % 0 mm 0.0 W/m2 CLR
03:54 -7 °C -9.2 °C 34361.1 hPa Calm     78 % 0 mm 0.0 W/m2 CLR
03:59 -7.1 °C -9.2 °C 34361.1 hPa Calm     78 % 0 mm 0.0 W/m2 CLR
04:04 -7.1 °C -9.3 °C 34361.1 hPa Calm     78 % 0 mm 0.0 W/m2 CLR
04:09 -7.2 °C -9.3 °C 34361.1 hPa Calm     79 % 0 mm 0.0 W/m2 CLR
04:14 -7.3 °C -9.2 °C 34361.1 hPa Calm     80 % 0 mm 0.0 W/m2 CLR
04:19 -7.3 °C -9.3 °C 34361.1 hPa Calm     80 % 0 mm 0.0 W/m2 CLR
04:24 -7.4 °C -9.3 °C 34361.1 hPa Calm     80 % 0 mm 0.0 W/m2 CLR
04:29 -7.4 °C -9.4 °C 34361.1 hPa Calm     80 % 0 mm 0.0 W/m2 CLR
04:34 -7.4 °C -9.3 °C 34361.1 hPa Calm     81 % 0 mm 0.0 W/m2 CLR
04:39 -7.4 °C -9.2 °C 34361.1 hPa Calm     82 % 0 mm 0.0 W/m2 CLR
04:44 -7.5 °C -9.2 °C 34361.1 hPa Calm     82 % 0 mm 0.0 W/m2 CLR
04:49 -7.6 °C -9.3 °C 34361.1 hPa Calm     82 % 0 mm 0.0 W/m2 CLR
04:54 -7.6 °C -9.3 °C 34361.1 hPa Calm     82 % 0 mm 0.0 W/m2 CLR
04:59 -7.7 °C -9.4 °C 34361.1 hPa Calm     82 % 0 mm 0.0 W/m2 CLR
05:04 -7.7 °C -9.3 °C 34361.1 hPa Calm     83 % 0 mm 0.0 W/m2 CLR
05:09 -7.7 °C -9.4 °C 34361.1 hPa Calm     83 % 0 mm 0.0 W/m2 CLR
05:14 -7.8 °C -9.4 °C 34361.1 hPa Calm     83 % 0 mm 0.0 W/m2 CLR
05:19 -7.8 °C -9.5 °C 34361.1 hPa Calm     83 % 0 mm 0.0 W/m2 CLR
05:24 -7.9 °C -9.5 °C 34361.1 hPa Calm     83 % 0 mm 0.0 W/m2 CLR
05:29 -7.9 °C -9.4 °C 34361.1 hPa Calm     84 % 0 mm 0.0 W/m2 CLR
05:34 -8 °C -9.5 °C 34361.1 hPa Calm     84 % 0 mm 0.0 W/m2 CLR
05:39 -8 °C -9.6 °C 34361.1 hPa Calm     84 % 0 mm 0.0 W/m2 CLR
05:44 -8.1 °C -9.6 °C 34361.1 hPa Calm     84 % 0 mm 0.0 W/m2 CLR
05:49 -8.1 °C -9.6 °C 34361.1 hPa Calm     84 % 0 mm 0.0 W/m2 CLR
05:54 -8.1 °C -9.6 °C 34361.1 hPa Calm     84 % 0 mm 0.0 W/m2 CLR
05:59 -8.1 °C -9.5 °C 34361.1 hPa Calm     85 % 0 mm 0.0 W/m2 CLR
06:04 -8.1 °C -9.6 °C 34361.1 hPa Calm     84 % 0 mm 0.0 W/m2 CLR
06:09 -8.2 °C -9.6 °C 34361.1 hPa Calm     85 % 0 mm 0.0 W/m2 CLR
06:14 -8.2 °C -9.6 °C 34361.1 hPa Calm     85 % 0 mm 0.0 W/m2 CLR
06:19 -8.2 °C -9.6 °C 34361.1 hPa Calm     85 % 0 mm 0.0 W/m2 CLR
06:24 -8.2 °C -9.6 °C 34361.1 hPa Calm     85 % 0 mm 0.0 W/m2 CLR
06:29 -8.2 °C -9.7 °C 34361.1 hPa Calm     85 % 0 mm 0.0 W/m2 OVC
06:34 -8.3 °C -9.6 °C 34361.1 hPa Calm     86 % 0 mm 0.0 W/m2 OVC
06:39 -8.4 °C -9.7 °C 34361.1 hPa Calm     86 % 0 mm 0.0 W/m2 OVC
06:44 -8.4 °C -9.6 °C 34361.1 hPa Calm     87 % 0 mm 7.0 W/m2 BKN
06:49 -8.4 °C -9.7 °C 34361.1 hPa Calm     87 % 0 mm 11.0 W/m2 BKN
06:54 -8.4 °C -9.7 °C 34371.3 hPa Calm     87 % 0 mm 14.0 W/m2 BKN
06:59 -8.4 °C -9.7 °C 34371.3 hPa Calm     87 % 0 mm 16.0 W/m2 BKN
07:04 -8.4 °C -9.7 °C 34371.3 hPa Calm     87 % 0 mm 21.0 W/m2 BKN
07:09 -8.4 °C -9.7 °C 34371.3 hPa Calm     87 % 0 mm 26.0 W/m2 BKN
07:14 -8.5 °C -9.7 °C 34371.3 hPa Calm     87 % 0 mm 37.0 W/m2 BKN
07:19 -8.5 °C -9.7 °C 34371.3 hPa Calm     87 % 0 mm 53.0 W/m2 SCT
07:24 -8.5 °C -9.7 °C 34371.3 hPa Calm     87 % 0 mm 65.0 W/m2 SCT
07:29 -8.4 °C -9.6 °C 34371.3 hPa WSW 2.6 km/h 2.6 km/h 87 % 0 mm 74.0 W/m2 FEW
07:34 -8.3 °C -9.6 °C 34371.3 hPa Calm     86 % 0 mm 88.0 W/m2 FEW
07:39 -8.2 °C -9.6 °C 34371.3 hPa Calm     86 % 0 mm 98.0 W/m2 FEW
07:44 -8.1 °C -9.6 °C 34371.3 hPa Calm     85 % 0 mm 105.0 W/m2 CLR
07:49 -8 °C -9.6 °C 34384.8 hPa Calm     84 % 0 mm 102.0 W/m2 CLR
07:54 -7.9 °C -9.4 °C 34384.8 hPa Calm     84 % 0 mm 127.0 W/m2 CLR
07:59 -7.7 °C -9.3 °C 34384.8 hPa Calm     83 % 0 mm 158.0 W/m2 CLR
08:04 -7.5 °C -9.1 °C 34384.8 hPa Calm     83 % 0 mm 151.0 W/m2 CLR
08:09 -7.3 °C -9.1 °C 34384.8 hPa Calm     81 % 0 mm 183.0 W/m2 CLR
08:14 -7.2 °C -9.1 °C 34395 hPa Calm     80 % 0 mm 181.0 W/m2 CLR
08:19 -7.1 °C -9.1 °C 34395 hPa Calm     79 % 0 mm 100.0 W/m2 CLR
08:24 -7.1 °C -9 °C 34395 hPa Calm     80 % 0 mm 90.0 W/m2 CLR
08:29 -7.1 °C -9 °C 34395 hPa Calm     81 % 0 mm 83.0 W/m2 CLR
08:34 -7.2 °C -9.2 °C 34395 hPa Calm     80 % 0 mm 74.0 W/m2 FEW
08:39 -7.2 °C -9.1 °C 34395 hPa Calm     81 % 0 mm 70.0 W/m2 FEW
08:44 -7.2 °C -9.1 °C 34395 hPa Calm     81 % 0 mm 209.0 W/m2 FEW
08:49 -7.1 °C -9.1 °C 34395 hPa Calm     80 % 0 mm 162.0 W/m2 CLR
08:54 -6.9 °C -8.9 °C 34395 hPa Calm     79 % 0 mm 304.0 W/m2 CLR
08:59 -6.6 °C -8.9 °C 34395 hPa Calm     77 % 0 mm 334.0 W/m2 CLR
09:04 -6.3 °C -9 °C 34395 hPa Calm     74 % 0 mm 350.0 W/m2 CLR
09:09 -6.3 °C -9.3 °C 34395 hPa Calm     71 % 0 mm 355.0 W/m2 CLR
09:15 -6.2 °C -9.4 °C 34395 hPa Calm     70 % 0 mm 376.0 W/m2 CLR
09:20 -6.1 °C -9.4 °C 34395 hPa Calm     69 % 0 mm 396.0 W/m2 CLR
09:25 -6 °C -9.4 °C 34395 hPa NNE 3.1 km/h   68 % 0 mm 406.0 W/m2 CLR
09:30 -5.8 °C -9.3 °C 34395 hPa Calm     67 % 0 mm 417.0 W/m2 CLR
09:35 -5.7 °C -9.1 °C 34395 hPa Calm     68 % 0 mm 434.0 W/m2 CLR
09:40 -5.4 °C -9.3 °C 34395 hPa Calm     65 % 0 mm 452.0 W/m2 CLR
09:45 -5.3 °C -9.4 °C 34395 hPa NW 15.6 km/h 15.6 km/h 63 % 0 mm 466.0 W/m2 CLR
09:50 -5.4 °C -9.6 °C 34395 hPa NW 9 km/h 9 km/h 62 % 0 mm 482.0 W/m2 CLR
09:55 -5.4 °C -9.6 °C 34395 hPa WNW 9 km/h   63 % 0 mm 494.0 W/m2 CLR
10:00 -5.4 °C -9.4 °C 34395 hPa West 11.9 km/h 11.9 km/h 64 % 0 mm 508.0 W/m2 CLR
10:05 -5.4 °C -9.5 °C 34395 hPa WSW 15 km/h 15 km/h 63 % 0 mm 520.0 W/m2 CLR
10:10 -5.3 °C -9.4 °C 34395 hPa Calm     63 % 0 mm 536.0 W/m2 CLR
10:15 -5.1 °C -9.4 °C 34395 hPa Calm     62 % 0 mm 548.0 W/m2 CLR
10:20 -4.9 °C -9.3 °C 34395 hPa Calm     61 % 0 mm 564.0 W/m2 CLR
10:25 -4.9 °C -9.3 °C 34384.8 hPa Calm     61 % 0 mm 575.0 W/m2 CLR
10:30 -4.7 °C -9.1 °C 34384.8 hPa Calm     61 % 0 mm 598.0 W/m2 CLR
10:35 -4.6 °C -9.3 °C 34384.8 hPa South 9 km/h 9 km/h 59 % 0 mm 612.0 W/m2 CLR
10:40 -4.6 °C -9.3 °C 34395 hPa Calm     59 % 0 mm 615.0 W/m2 CLR
10:45 -4.4 °C -9 °C 34384.8 hPa Calm     60 % 0 mm 635.0 W/m2 CLR
10:50 -4.3 °C -9.2 °C 34384.8 hPa North 9 km/h 9 km/h 58 % 0 mm 652.0 W/m2 CLR
10:55 -4.2 °C -9.3 °C 34384.8 hPa SW 2.6 km/h   57 % 0 mm 666.0 W/m2 CLR
11:00 -4.2 °C -9.3 °C 34384.8 hPa SSW 9 km/h 9 km/h 57 % 0 mm 677.0 W/m2 CLR
11:05 -4.1 °C -9.3 °C 34395 hPa Calm     56 % 0 mm 691.0 W/m2 CLR
11:10 -4.1 °C -9.1 °C 34384.8 hPa North 12.9 km/h 12.9 km/h 57 % 0 mm 701.0 W/m2 CLR
11:15 -4 °C -9.2 °C 34384.8 hPa Calm     56 % 0 mm 714.0 W/m2 CLR
11:20 -3.9 °C -9.1 °C 34384.8 hPa North 3.1 km/h 3.1 km/h 56 % 0 mm 726.0 W/m2 CLR
11:25 -3.8 °C -9 °C 34384.8 hPa NNE 9 km/h 9 km/h 56 % 0 mm 738.0 W/m2 CLR
11:30 -3.7 °C -9.1 °C 34384.8 hPa NNE 17.9 km/h 17.9 km/h 55 % 0 mm 751.0 W/m2 CLR
11:35 -3.6 °C -9 °C 34384.8 hPa ENE 15 km/h 15 km/h 55 % 0 mm 763.0 W/m2 CLR
11:40 -3.6 °C -9.1 °C 34384.8 hPa Calm     54 % 0 mm 775.0 W/m2 CLR
11:45 -3.5 °C -9.1 °C 34384.8 hPa East 15.6 km/h 15.6 km/h 54 % 0 mm 789.0 W/m2 CLR
11:50 -3.5 °C -9.1 °C 34384.8 hPa ENE 17.9 km/h 17.9 km/h 54 % 0 mm 798.0 W/m2 CLR
11:55 -3.4 °C -9 °C 34384.8 hPa ENE 11.9 km/h 11.9 km/h 54 % 0 mm 807.0 W/m2 CLR
12:00 -3.3 °C -9.1 °C 34384.8 hPa ESE 17.9 km/h 17.9 km/h 53 % 0 mm 814.0 W/m2 CLR
12:05 -3.3 °C -9.1 °C 34384.8 hPa ESE 9 km/h 9 km/h 53 % 0 mm 826.0 W/m2 CLR
12:10 -3.2 °C -8.9 °C 34384.8 hPa East 9 km/h   53 % 0 mm 833.0 W/m2 CLR
12:15 -3 °C -8.8 °C 34384.8 hPa Calm     53 % 0 mm 840.0 W/m2 CLR
12:20 -2.8 °C -8.7 °C 34384.8 hPa ENE 3.1 km/h 3.1 km/h 52 % 0 mm 847.0 W/m2 CLR
12:21 -2.8 °C -8.7 °C 34384.8 hPa ENE 6 km/h 6 km/h 52 % 0 mm 849.0 W/m2 CLR
12:26 -2.6 °C -9.1 °C 34384.8 hPa Calm     49 % 0 mm 858.0 W/m2 CLR
12:31 -2.6 °C -8.8 °C 34371.3 hPa ENE 3.1 km/h   50 % 0 mm 865.0 W/m2 CLR
12:36 -2.4 °C -8.9 °C 34371.3 hPa Calm     49 % 0 mm 874.0 W/m2 CLR
12:41 -2.4 °C -8.8 °C 34371.3 hPa NNE 3.1 km/h 3.1 km/h 49 % 0 mm 882.0 W/m2 CLR
12:46 -2.3 °C -8.8 °C 34371.3 hPa NE 3.1 km/h 3.1 km/h 49 % 0 mm 888.0 W/m2 CLR
12:51 -2.2 °C -8.7 °C 34371.3 hPa East 29.8 km/h 29.8 km/h 49 % 0 mm 895.0 W/m2 CLR
12:56 -2.4 °C -8.7 °C 34371.3 hPa NE 20.9 km/h 20.9 km/h 50 % 0 mm 902.0 W/m2 CLR
13:01 -2.3 °C -8.5 °C 34371.3 hPa ENE 15 km/h 15 km/h 51 % 0 mm 872.0 W/m2 CLR
13:06 -2.4 °C -8.5 °C 34371.3 hPa NE 18.2 km/h 18.2 km/h 51 % 0 mm 914.0 W/m2 CLR
13:11 -2.3 °C -8.7 °C 34371.3 hPa NNW 15 km/h 15 km/h 50 % 0 mm 914.0 W/m2 CLR
13:16 -2.2 °C -8.4 °C 34371.3 hPa NE 15 km/h 15 km/h 51 % 0 mm 921.0 W/m2 CLR
13:21 -2.1 °C -8.7 °C 34371.3 hPa ENE 18.2 km/h 18.2 km/h 49 % 0 mm 928.0 W/m2 CLR
13:26 -2.3 °C -8.7 °C 34361.1 hPa East 2.6 km/h   50 % 0 mm 935.0 W/m2 CLR
13:31 -2.2 °C -8.7 °C 34361.1 hPa North 9 km/h 9 km/h 49 % 0 mm 953.0 W/m2 CLR
13:36 -2.1 °C -8.7 °C 34361.1 hPa NNE 7.7 km/h 7.7 km/h 49 % 0 mm 893.0 W/m2 CLR
13:41 -1.9 °C -8.4 °C 34361.1 hPa NNE 17.9 km/h 17.9 km/h 49 % 0 mm 904.0 W/m2 CLR
13:46 -1.7 °C -8.4 °C 34361.1 hPa NE 15 km/h 15 km/h 48 % 0 mm 863.0 W/m2 CLR
13:51 -1.6 °C -8.6 °C 34361.1 hPa Calm     47 % 0 mm 984.0 W/m2 CLR
13:56 -1.6 °C -8.5 °C 34361.1 hPa ENE 18.2 km/h 18.2 km/h 47 % 0 mm 986.0 W/m2 CLR
14:01 -1.4 °C -8.4 °C 34347.6 hPa NNE 3.1 km/h 3.1 km/h 47 % 0 mm 993.0 W/m2 CLR
14:06 -1.3 °C -8.4 °C 34347.6 hPa NE 18.2 km/h 18.2 km/h 46 % 0 mm 983.0 W/m2 CLR
14:11 -1.2 °C -8.5 °C 34347.6 hPa Calm     45 % 0 mm 958.0 W/m2 CLR
14:16 -1.2 °C -8.4 °C 34347.6 hPa NE 15.6 km/h 15.6 km/h 46 % 0 mm 780.0 W/m2 CLR
14:21 -1.2 °C -8.5 °C 34347.6 hPa ENE 23.8 km/h 23.8 km/h 45 % 0 mm 376.0 W/m2 CLR
14:26 -1.2 °C -8.3 °C 34337.4 hPa Calm     46 % 0 mm 853.0 W/m2 CLR
14:31 -1.2 °C -8.3 °C 34337.4 hPa ENE 15.6 km/h 15.6 km/h 46 % 0 mm 998.0 W/m2 CLR
14:36 -1 °C -8.2 °C 34337.4 hPa NE 17.9 km/h 17.9 km/h 46 % 0 mm 991.0 W/m2 CLR
14:41 -0.7 °C -8.3 °C 34337.4 hPa NE 9 km/h 9 km/h 44 % 0 mm 940.0 W/m2 CLR
14:46 -0.7 °C -8.3 °C 34337.4 hPa WNW 15 km/h 15 km/h 44 % 0 mm 946.0 W/m2 CLR
14:51 -0.6 °C -8.2 °C 34337.4 hPa NE 9 km/h   44 % 0 mm 856.0 W/m2 CLR
14:56 -0.6 °C -8.2 °C 34327.3 hPa NE 5.1 km/h 5.1 km/h 44 % 0 mm 984.0 W/m2 CLR
15:01 -0.4 °C -8.3 °C 34327.3 hPa NNE 11.9 km/h 11.9 km/h 43 % 0 mm 805.0 W/m2 CLR
15:06 -0.3 °C -8.5 °C 34327.3 hPa NE 17.9 km/h 17.9 km/h 41 % 0 mm 911.0 W/m2 CLR
15:11 -0.1 °C -8.6 °C 34327.3 hPa NE 17.9 km/h 17.9 km/h 40 % 0 mm 926.0 W/m2 CLR
15:16 0 °C -8.9 °C 34327.3 hPa NE 20.9 km/h 20.9 km/h 38 % 0 mm 911.0 W/m2 CLR
15:21 0.1 °C -9.1 °C 34327.3 hPa NNE 17.9 km/h 17.9 km/h 37 % 0 mm 882.0 W/m2 CLR
15:26 0.1 °C -9.6 °C 34327.3 hPa NE 17.9 km/h 17.9 km/h 35 % 0 mm 886.0 W/m2 CLR
15:31 0.1 °C -9.6 °C 34327.3 hPa ENE 11.9 km/h 11.9 km/h 35 % 0 mm 877.0 W/m2 CLR
15:36 0.1 °C -9.3 °C 34327.3 hPa NE 18.2 km/h 18.2 km/h 36 % 0 mm 867.0 W/m2 CLR
15:41 -0.1 °C -9.4 °C 34313.7 hPa NE 20.9 km/h 20.9 km/h 36 % 0 mm 860.0 W/m2 CLR
15:46 -0.1 °C -9.7 °C 34313.7 hPa ENE 23.3 km/h 23.3 km/h 35 % 0 mm 854.0 W/m2 CLR
15:51 0.1 °C -9.8 °C 34313.7 hPa ENE 10.3 km/h 10.6 km/h 34 % 0 mm 844.0 W/m2 CLR
15:53 0.2 °C -9.5 °C 34313.7 hPa ENE 11.9 km/h 11.9 km/h 35 % 0 mm 840.0 W/m2 CLR
15:58 0.3 °C -9.6 °C 34313.7 hPa ENE 17.9 km/h 17.9 km/h 34 % 0 mm 830.0 W/m2 CLR
16:03 0.3 °C -9.6 °C 34313.7 hPa NNE 15 km/h 15 km/h 34 % 0 mm 823.0 W/m2 CLR
16:08 0.3 °C -9.6 °C 34313.7 hPa NE 10.3 km/h 10.3 km/h 34 % 0 mm 814.0 W/m2 CLR
16:13 0.4 °C -9.3 °C 34313.7 hPa NE 15 km/h 15 km/h 35 % 0 mm 807.0 W/m2 CLR
16:18 0.6 °C -9.6 °C 34303.6 hPa ENE 26.9 km/h 26.9 km/h 33 % 0 mm 796.0 W/m2 CLR
16:23 0.6 °C -9.7 °C 34303.6 hPa North 17.9 km/h 17.9 km/h 33 % 0 mm 788.0 W/m2 CLR
16:28 0.4 °C -9.8 °C 34303.6 hPa NE 26.9 km/h 26.9 km/h 33 % 0 mm 777.0 W/m2 CLR
16:33 0.4 °C -9.8 °C 34303.6 hPa NE 17.9 km/h 17.9 km/h 33 % 0 mm 766.0 W/m2 CLR
16:38 0.5 °C -9.7 °C 34303.6 hPa ENE 18.2 km/h 18.2 km/h 33 % 0 mm 758.0 W/m2 CLR
16:43 0.5 °C -9.7 °C 34303.6 hPa NNE 15 km/h 15 km/h 33 % 0 mm 745.0 W/m2 CLR
16:48 0.6 °C -9.6 °C 34303.6 hPa ENE 26.9 km/h 26.9 km/h 33 % 0 mm 733.0 W/m2 CLR
16:53 0.6 °C -9.6 °C 34303.6 hPa ENE 17.9 km/h 17.9 km/h 33 % 0 mm 721.0 W/m2 CLR
16:58 0.7 °C -9.8 °C 34303.6 hPa North 23.8 km/h 23.8 km/h 32 % 0 mm 712.0 W/m2 CLR
17:03 0.7 °C -9.8 °C 34303.6 hPa North 23.8 km/h 23.8 km/h 32 % 0 mm 698.0 W/m2 CLR
17:08 0.7 °C -9.8 °C 34303.6 hPa North 12.9 km/h 12.9 km/h 32 % 0 mm 687.0 W/m2 CLR
17:13 0.7 °C -9.6 °C 34293.4 hPa NNE 9 km/h 9 km/h 33 % 0 mm 675.0 W/m2 CLR
17:18 0.8 °C -10 °C 34293.4 hPa NW 23.8 km/h 23.8 km/h 31 % 0 mm 666.0 W/m2 CLR
17:23 0.9 °C -9.9 °C 34293.4 hPa North 20.9 km/h 20.9 km/h 31 % 0 mm 652.0 W/m2 CLR
17:28 0.8 °C -9.9 °C 34293.4 hPa North 17.9 km/h 17.9 km/h 31 % 0 mm 636.0 W/m2 CLR
17:33 0.9 °C -10.2 °C 34293.4 hPa North 23.8 km/h 23.8 km/h 30 % 0 mm 626.0 W/m2 CLR
17:38 0.9 °C -9.9 °C 34293.4 hPa North 20.9 km/h 20.9 km/h 31 % 0 mm 613.0 W/m2 CLR
17:44 0.8 °C -9.9 °C 34293.4 hPa NW 23.8 km/h 23.8 km/h 31 % 0 mm 599.0 W/m2 CLR
17:49 0.8 °C -10.1 °C 34293.4 hPa NNW 9 km/h   31 % 0 mm 580.0 W/m2 CLR
17:54 0.9 °C -9.9 °C 34293.4 hPa NNE 20.9 km/h 20.9 km/h 31 % 0 mm 570.0 W/m2 CLR
17:59 0.9 °C -9.9 °C 34293.4 hPa ENE 26.9 km/h 26.9 km/h 31 % 0 mm 552.0 W/m2 CLR
18:03 0.8 °C -9.4 °C 34293.4 hPa ENE 12.9 km/h 12.9 km/h 33 % 0 mm 540.0 W/m2 CLR
18:08 0.8 °C -9.7 °C 34293.4 hPa ENE 9 km/h 9 km/h 32 % 0 mm 529.0 W/m2 CLR
18:13 0.8 °C -9.8 °C 34293.4 hPa NE 15.6 km/h 15.6 km/h 32 % 0 mm 510.0 W/m2 CLR
18:18 0.8 °C -10.1 °C 34279.9 hPa WNW 9 km/h 9 km/h 31 % 0 mm 496.0 W/m2 CLR
18:24 0.8 °C -9.7 °C 34279.9 hPa NNE 9 km/h 9 km/h 32 % 0 mm 483.0 W/m2 CLR
18:29 0.9 °C -9.6 °C 34279.9 hPa NNE 15 km/h 15 km/h 32 % 0 mm 469.0 W/m2 CLR
18:34 0.9 °C -9.9 °C 34279.9 hPa Calm     31 % 0 mm 450.0 W/m2 CLR
18:39 0.9 °C -9.9 °C 34279.9 hPa Calm     31 % 0 mm 436.0 W/m2 CLR
18:44 0.9 °C -10.2 °C 34279.9 hPa NNE 17.9 km/h 17.9 km/h 30 % 0 mm 422.0 W/m2 CLR
18:49 1 °C -9.8 °C 34279.9 hPa NNE 9 km/h   31 % 0 mm 408.0 W/m2 CLR
18:54 1 °C -10.1 °C 34279.9 hPa NNE 9 km/h 9 km/h 30 % 0 mm 390.0 W/m2 CLR
18:59 1.1 °C -9.8 °C 34279.9 hPa NNE 3.1 km/h   31 % 0 mm 376.0 W/m2 CLR
19:04 1.1 °C -9.7 °C 34279.9 hPa NNE 6 km/h 6 km/h 31 % 0 mm 359.0 W/m2 CLR
19:09 1 °C -9.8 °C 34279.9 hPa NE 6 km/h 6 km/h 31 % 0 mm 345.0 W/m2 CLR
19:14 0.9 °C -9.6 °C 34279.9 hPa ENE 15.6 km/h 15.6 km/h 32 % 0 mm 330.0 W/m2 CLR
19:19 0.8 °C -9.9 °C 34279.9 hPa NE 3.1 km/h 3.1 km/h 31 % 0 mm 311.0 W/m2 CLR
19:24 0.8 °C -9.7 °C 34279.9 hPa ENE 6 km/h 6 km/h 32 % 0 mm 297.0 W/m2 CLR
19:29 0.8 °C -9.8 °C 34279.9 hPa ENE 15 km/h 15 km/h 32 % 0 mm 283.0 W/m2 CLR
19:34 0.7 °C -9.8 °C 34279.9 hPa NE 15 km/h 15 km/h 32 % 0 mm 269.0 W/m2 CLR
19:39 0.8 °C -9.8 °C 34279.9 hPa Calm     32 % 0 mm 251.0 W/m2 CLR
19:44 0.8 °C -10 °C 34279.9 hPa NNE 11.9 km/h 11.9 km/h 31 % 0 mm 239.0 W/m2 CLR
19:49 0.8 °C -9.8 °C 34279.9 hPa NNE 9 km/h 9 km/h 32 % 0 mm 223.0 W/m2 CLR
19:54 0.8 °C -9.5 °C 34279.9 hPa NNE 15 km/h 15 km/h 33 % 0 mm 206.0 W/m2 CLR
19:59 0.7 °C -9.5 °C 34279.9 hPa NE 11.9 km/h 11.9 km/h 33 % 0 mm 190.0 W/m2 CLR
20:04 0.7 °C -9.8 °C 34279.9 hPa NE 15.6 km/h 15.6 km/h 32 % 0 mm 172.0 W/m2 CLR
20:09 0.6 °C -9.3 °C 34293.4 hPa ENE 20.8 km/h 20.8 km/h 34 % 0 mm 155.0 W/m2 CLR
20:14 0.4 °C -7.3 °C 34293.4 hPa East 6 km/h 6 km/h 44 % 0 mm 141.0 W/m2 CLR
20:19 0.1 °C -7 °C 34293.4 hPa East 12.9 km/h 12.9 km/h 47 % 0 mm 123.0 W/m2 CLR
20:24 -0.2 °C -6.8 °C 34293.4 hPa East 17.9 km/h 17.9 km/h 49 % 0 mm 104.0 W/m2 CLR
20:29 -0.4 °C -6.8 °C 34293.4 hPa ESE 11.9 km/h 11.9 km/h 50 % 0 mm 91.0 W/m2 CLR
20:34 -0.4 °C -6.7 °C 34293.4 hPa East 20.9 km/h 20.9 km/h 51 % 0 mm 79.0 W/m2 FEW
20:39 -0.5 °C -6.8 °C 34293.4 hPa East 17.9 km/h 17.9 km/h 51 % 0 mm 67.0 W/m2 FEW
20:44 -0.6 °C -6.9 °C 34293.4 hPa Calm     51 % 0 mm 54.0 W/m2 SCT
20:49 -0.7 °C -6.9 °C 34293.4 hPa ESE 9 km/h 9 km/h 51 % 0 mm 42.0 W/m2 BKN
20:54 -0.7 °C -6.6 °C 34303.6 hPa ESE 20.9 km/h 20.9 km/h 53 % 0 mm 33.0 W/m2 BKN
20:59 -0.8 °C -6.4 °C 34303.6 hPa ESE 17.9 km/h 17.9 km/h 55 % 0 mm 25.0 W/m2 BKN
21:04 -0.9 °C -6.6 °C 34303.6 hPa SE 18.2 km/h 18.2 km/h 55 % 0 mm 21.0 W/m2 BKN
21:09 -1.1 °C -6.5 °C 34293.4 hPa SE 9 km/h 9 km/h 56 % 0 mm 18.0 W/m2 BKN
21:14 -1.2 °C -6.6 °C 34303.6 hPa SE 12.9 km/h 12.9 km/h 56 % 0 mm 14.0 W/m2 BKN
21:19 -1.2 °C -6.6 °C 34303.6 hPa SE 11.9 km/h 11.9 km/h 56 % 0 mm 12.0 W/m2 BKN
21:24 -1.3 °C -6.5 °C 34303.6 hPa Calm     57 % 0 mm 9.0 W/m2 BKN
21:29 -1.3 °C -6.6 °C 34303.6 hPa Calm     57 % 0 mm 5.0 W/m2 OVC
21:34 -1.4 °C -6.4 °C 34303.6 hPa Calm     58 % 0 mm 0.0 W/m2 OVC
21:39 -1.4 °C -6.7 °C 34303.6 hPa Calm     57 % 0 mm 0.0 W/m2 OVC
21:44 -1.5 °C -6.7 °C 34303.6 hPa Calm     57 % 0 mm 0.0 W/m2 CLR
21:49 -1.6 °C -6.8 °C 34303.6 hPa SE 9 km/h 9 km/h 57 % 0 mm 0.0 W/m2 CLR
21:54 -1.6 °C -6.8 °C 34313.7 hPa Calm     57 % 0 mm 0.0 W/m2 CLR
21:59 -1.6 °C -6.8 °C 34313.7 hPa Calm     57 % 0 mm 0.0 W/m2 CLR
22:04 -1.7 °C -6.9 °C 34313.7 hPa ESE 2.6 km/h 2.6 km/h 57 % 0 mm 0.0 W/m2 CLR
22:09 -1.7 °C -6.9 °C 34313.7 hPa Calm     57 % 0 mm 0.0 W/m2 CLR
22:14 -1.8 °C -7 °C 34313.7 hPa Calm     57 % 0 mm 0.0 W/m2 CLR
22:19 -1.8 °C -7.1 °C 34327.3 hPa Calm     57 % 0 mm 0.0 W/m2 CLR
22:24 -1.8 °C -7.1 °C 34327.3 hPa Calm     57 % 0 mm 0.0 W/m2 CLR
22:29 -1.9 °C -7.1 °C 34327.3 hPa Calm     57 % 0 mm 0.0 W/m2 CLR
22:34 -1.9 °C -6.9 °C 34327.3 hPa Calm     58 % 0 mm 0.0 W/m2 CLR
22:39 -2 °C -7 °C 34337.4 hPa Calm     58 % 0 mm 0.0 W/m2 CLR
22:44 -2.1 °C -6.9 °C 34337.4 hPa Calm     59 % 0 mm 0.0 W/m2 CLR
22:49 -2.2 °C -6.9 °C 34337.4 hPa Calm     60 % 0 mm 0.0 W/m2 CLR
22:54 -2.3 °C -6.9 °C 34337.4 hPa Calm     61 % 0 mm 0.0 W/m2 CLR
22:59 -2.5 °C -6.9 °C 34337.4 hPa Calm     62 % 0 mm 0.0 W/m2 CLR
23:04 -2.7 °C -6.9 °C 34347.6 hPa Calm     63 % 0 mm 0.0 W/m2 CLR
23:09 -2.7 °C -7 °C 34347.6 hPa Calm     63 % 0 mm 0.0 W/m2 CLR
23:14 -2.8 °C -6.9 °C 34347.6 hPa Calm     64 % 0 mm 0.0 W/m2 CLR
23:19 -2.9 °C -7 °C 34347.6 hPa Calm     64 % 0 mm 0.0 W/m2 CLR
23:24 -2.9 °C -6.9 °C 34347.6 hPa Calm     65 % 0 mm 0.0 W/m2 CLR
23:29 -3 °C -7 °C 34347.6 hPa Calm     65 % 0 mm 0.0 W/m2 CLR
23:34 -3.1 °C -7.1 °C 34361.1 hPa Calm     65 % 0 mm 0.0 W/m2 CLR
23:35 -3.1 °C -7.1 °C 34361.1 hPa Calm     65 % 0 mm 0.0 W/m2 CLR
23:40 -3.2 °C -7 °C 34361.1 hPa Calm     66 % 0 mm 0.0 W/m2 CLR
23:45 -3.2 °C -7 °C 34361.1 hPa Calm     66 % 0 mm 0.0 W/m2 CLR
23:50 -3.3 °C -6.9 °C 34361.1 hPa Calm     67 % 0 mm 0.0 W/m2 CLR
23:55 -3.4 °C -6.9 °C 34361.1 hPa Calm     68 % 0 mm 0.0 W/m2 CLR
Lo Temps de Massalio
Compliments of Weather Underground - 1.25 mb